Location: Ravensburg
(47.7866°N, 9.6124°E)
Time: 09:45:36
(UTC+02:00)

YUBILEINY - Pass Details

Date: 20 March 2026
Orbit: 1477 x 1509 km, 82.5° (Epoch: 17 April)

Event Time Altitude Azimuth Distance (km) Brightness Sun altitude
Rises 05:37:55 0° 339° (NNW) 4,616 ? -8.7°
Reaches altitude 10° 05:42:41 10° 316° (NW) 3,627 ? -7.9°
Maximum altitude 05:46:27 14° 290° (WNW) 3,335 ? -7.3°
Drops below altitude 10° 05:50:13 10° 263° (W) 3,615 ? -6.6°
Enters shadow 05:52:09 - 253° (WSW) 3,946 ? -6.3°
